Back to catalog

CZ-6A DEB

AlivePO
NORAD 60688·DEBRIS·🇨🇳 China

Launched Aug 6, 2024 from Taiyuan Satellite Launch Center

Loading…

Next Passes (next 24 hours)

TLE

FreshSource: Space-Track

Epoch: Sep 14, 2026, 10:53 UTC

1 60688U 24140CR  26257.45377748  .00000838  00000-0  34465-3 0  9990
2 60688  88.9961 263.9468 0027400 265.8265  93.9796 14.25931179109090

Track CZ-6A DEB in real time with AllMySat

Download on the App Store